Barking Sands, HI

6:07 AM HST on February 20, 2018 (GMT -1000)
Barking Sands PMRF

Weather History for PHBK - January, 2013

Change the Weather History Date:

Tuesday, January 8, 2013

  Actual Average Record
Temperature  
Mean Temperature 72 °F -  
Max Temperature 79 °F 79 °F 84 °F (1953)
Min Temperature 66 °F 62 °F 58 °F (1967)
Cooling Degree Days 8    
Growing Degree Days 22 (Base 50)    
Moisture  
Dew Point 69 °F    
Average Humidity 85    
Maximum Humidity 100    
Minimum Humidity 74    
Precipitation  
Precipitation 0.00 in - - ()
Sea Level Pressure  
Sea Level Pressure 29.96 in    
Wind  
Wind Speed 4 mph (NE)    
Max Wind Speed 9 mph    
Max Gust Speed 22 mph    
Visibility 10 miles    
Events      
Averages and records for this station are not official NWS values.
T = Trace of Precipitation, MM = Missing Value Source: NWS Daily Summary

Daily Weather History Graph

Daily Weather History Graph

Search for Another Location

Airport or City:

Trip Planner

Search our weather history database for the weather conditions in past years. The results will help you decide how hot, cold, wet, or windy it might be!

Date:

Astronomy

Jan. 08, 2013 Rise Set
Actual Time 7:20 AM HST 6:12 PM HST
Civil Twilight 6:55 AM HST 6:36 PM HST
Nautical Twilight 6:28 AM HST 7:04 PM HST
Astronomical Twilight 6:01 AM HST 7:31 PM HST
Moon 4:07 AM HST (1/8) 3:24 PM HST (1/8)
Length of Visible Light 11h 40m
Length of Day
10h 52m
Waning Crescent, 12% of the Moon is Illuminated
Jan 8
Waning Crescent
Jan 11
New
Jan 18
First Quarter
Jan 26
Full
Feb 3
Last Quarter

Hourly Weather History & Observations

Time (HST) Temp. Dew Point Humidity Pressure Visibility Wind Dir Wind Speed Gust Speed Precip Events Conditions
12:26 AM 69.8 °F 69.8 °F 100% 30.01 in 10.0 mi ESE 3.5 mph - N/A   Mostly Cloudy
12:37 AM 69.8 °F 68.0 °F 94% 30.01 in 10.0 mi SE 4.6 mph - N/A   Scattered Clouds
12:56 AM 71.1 °F 68.0 °F 90% 30.01 in 10.0 mi ESE 3.5 mph - N/A   Clear
1:56 AM 69.1 °F 64.9 °F 87% 29.99 in 10.0 mi Calm Calm - N/A   Clear
2:56 AM 68.0 °F 66.9 °F 96% 29.98 in 10.0 mi ESE 3.5 mph - N/A   Clear
3:56 AM 66.9 °F 66.9 °F 100% 29.96 in 10.0 mi East 3.5 mph - N/A   Clear
4:56 AM 68.0 °F 62.1 °F 81% 29.95 in 10.0 mi East 3.5 mph - N/A   Clear
5:56 AM 68.0 °F 63.0 °F 84% 29.95 in 10.0 mi East 3.5 mph - N/A   Clear
6:56 AM 66.9 °F 64.9 °F 93% 29.96 in 10.0 mi Calm Calm - N/A   Clear
7:56 AM 68.0 °F 64.9 °F 90% 29.97 in 10.0 mi ENE 5.8 mph - N/A   Clear
8:56 AM 72.0 °F 66.0 °F 81% 29.99 in 10.0 mi East 3.5 mph - N/A   Mostly Cloudy
9:56 AM 77.0 °F 69.1 °F 76% 30.00 in 10.0 mi Calm Calm - N/A   Scattered Clouds
10:56 AM 78.1 °F 70.0 °F 76% 29.99 in 10.0 mi WNW 5.8 mph - N/A   Scattered Clouds
11:56 AM 79.0 °F 73.0 °F 82% 29.96 in 10.0 mi NNW 8.1 mph - N/A   Mostly Cloudy
12:56 PM 78.1 °F 71.1 °F 79% 29.94 in 10.0 mi NNW 6.9 mph - N/A   Mostly Cloudy
1:17 PM 78.8 °F 73.4 °F 83% 29.92 in 10.0 mi NNW 5.8 mph - N/A   Overcast
1:24 PM 78.8 °F 69.8 °F 74% 29.91 in 10.0 mi NW 8.1 mph - N/A   Mostly Cloudy
1:28 PM 78.8 °F 71.6 °F 78% 29.91 in 10.0 mi NW 8.1 mph - N/A   Mostly Cloudy
1:48 PM 78.8 °F 71.6 °F 78% 29.91 in 10.0 mi NW 6.9 mph - N/A   Mostly Cloudy
1:56 PM 78.1 °F 73.0 °F 84% 29.91 in 10.0 mi NW 9.2 mph - N/A   Overcast
2:56 PM 79.0 °F 71.1 °F 77% 29.91 in 10.0 mi NW 8.1 mph - N/A   Mostly Cloudy
3:56 PM 79.0 °F 71.1 °F 77% 29.91 in 10.0 mi NNW 9.2 mph - N/A   Mostly Cloudy
4:56 PM 78.1 °F 75.0 °F 90% 29.93 in 10.0 mi North 5.8 mph - N/A   Mostly Cloudy
5:56 PM 77.0 °F 73.0 °F 88% 29.94 in 10.0 mi NNE 4.6 mph - N/A   Partly Cloudy
6:56 PM 75.9 °F 70.0 °F 82% 29.95 in 10.0 mi SW 4.6 mph - N/A   Partly Cloudy
7:56 PM 73.9 °F 72.0 °F 93% 29.98 in 10.0 mi SE 4.6 mph - N/A   Scattered Clouds
8:56 PM 73.0 °F 69.1 °F 87% 29.99 in 10.0 mi ESE 4.6 mph - N/A   Overcast
9:56 PM 73.9 °F 68.0 °F 82% 30.00 in 10.0 mi SE 9.2 mph 21.9 mph N/A   Overcast
10:56 PM 73.0 °F 66.9 °F 81% 29.99 in 10.0 mi Calm Calm - N/A   Overcast
11:56 PM 73.0 °F 73.0 °F 100% 29.99 in 10.0 mi Calm Calm - N/A   Partly Cloudy